User: anonymous   Login
Location: Unspecified
(0.0000°N, 0.0000°E)
Time: 01:02:52
(UTC+00:00)
Language:

PLEIADES HR1 - Orbit

View from above orbital plane
View from above orbital plane
View from above satellite
View from above satellite

Ground track
Ground track

The orbit data is extracted from the following two-line orbital elements,

1 38012U 11076F   15211.81849786  .00000066  00000-0  24019-4 0  9992
2 38012 098.1911 285.9301 0001265 084.6641 275.4696 14.58552703192669
Epoch (UTC): 30 July 2015 19:38:38
Eccentricity: 0.0001265
inclination: 98.1911°
perigee height: 697 km
apogee height: 699 km
right ascension of ascending node: 285.9301°
argument of perigee: 84.6641°
revolutions per day: 14.58552703
mean anomaly at epoch: 275.4696°
orbit number at epoch: 19266

The dashed part of the orbit path shows where the satellite is in the earth's shadow,  

DLR